DW0307 Weather Reports


Display with metric or nautical units.
time (UTC)temp
F
wind
direction
speed
MPH
gust
MPH
rain 1hr
in
rain 24hr
in
rain mn
in
humidity
%
barometer
mb
20190124060350 18 66 9.0 0.0 0.00 0.00 0.00 91 995.2
20190124055347 18 27 8.0 0.0 0.00 0.00 0.00 91 995.3
20190124054338 18 47 6.0 0.0 0.00 0.00 0.00 91 995.2
20190124053352 18 39 6.0 0.0 0.00 0.00 0.00 91 995.2
20190124052342 18 32 6.0 0.0 0.00 0.00 0.00 91 995.2
20190124051356 18 27 7.0 0.0 0.00 0.00 0.00 91 995.2
20190124050347 18 45 9.0 0.0 0.00 0.00 0.00 91 995.2
20190124045357 18 54 9.0 0.0 0.00 0.00 0.00 90 995.1
20190124044352 18 42 9.0 0.0 0.00 0.00 0.00 90 995.1
20190124043343 18 28 6.0 0.0 0.00 0.00 0.00 90 995.1
20190124042354 18 29 7.0 0.0 0.00 0.00 0.00 90 995.3
20190124041346 18 37 9.0 0.0 0.00 0.00 0.00 90 995.2
20190124040338 17 71 9.0 0.0 0.00 0.00 0.00 90 995.2
20190124035347 17 50 12.0 0.0 0.00 0.00 0.00 90 995.1
20190124034336 18 45 11.0 0.0 0.00 0.00 0.00 90 995.1
20190124033350 18 62 10.0 0.0 0.00 0.00 0.00 90 995.1
20190124032341 18 43 8.0 0.0 0.00 0.00 0.00 90 995.0
20190124031351 18 61 8.0 0.0 0.00 0.00 0.00 90 995.0
20190124030338 18 47 9.0 0.0 0.00 0.00 0.00 90 994.9
20190124025352 18 57 8.0 0.0 0.00 0.00 0.00 90 994.6
20190124024344 18 49 9.0 0.0 0.00 0.00 0.00 90 994.5
20190124023353 18 29 9.0 0.0 0.00 0.00 0.00 90 994.5
20190124022339 18 14 8.0 0.0 0.00 0.00 0.00 90 994.5
20190124021352 18 34 7.0 0.0 0.00 0.00 0.00 90 994.5
20190124020344 18 40 7.0 0.0 0.00 0.00 0.00 90 994.7
20190124015351 18 25 5.0 0.0 0.00 0.00 0.00 90 994.6
20190124014345 18 45 4.0 0.0 0.00 0.00 0.00 90 994.6
20190124013339 18 45 4.0 0.0 0.00 0.00 0.00 90 994.5
20190124012351 18 27 5.0 0.0 0.00 0.00 0.00 90 994.7
20190124011342 18 6 5.0 0.0 0.00 0.00 0.00 90 994.7
20190124010340 18 29 5.0 0.0 0.00 0.00 0.00 90 994.6
20190124005351 18 46 5.0 0.0 0.00 0.00 0.00 90 994.7
20190124004342 18 43 5.0 0.0 0.00 0.00 0.00 90 994.7
20190124003350 18 18 6.0 0.0 0.00 0.00 0.00 90 994.7
20190124002343 18 43 5.0 0.0 0.00 0.00 0.00 90 994.6
20190124001352 18 26 6.0 0.0 0.00 0.00 0.00 90 994.4
20190124000342 18 42 7.0 0.0 0.00 0.00 0.00 90 994.3
20190123235351 18 29 6.0 0.0 0.00 0.00 0.00 90 994.3
20190123234345 18 34 7.0 0.0 0.00 0.00 0.00 90 994.4
20190123233337 18 30 7.0 0.0 0.00 0.00 0.00 90 994.3
20190123232345 18 39 7.0 0.0 0.00 0.00 0.00 90 994.3
20190123231340 18 52 7.0 0.0 0.00 0.00 0.00 90 994.2
20190123230352 18 37 8.0 0.0 0.00 0.00 0.00 90 994.3
20190123225342 18 35 8.0 0.0 0.00 0.00 0.00 90 993.6
20190123224352 18 41 8.0 0.0 0.00 0.00 0.00 90 993.7
20190123223348 18 37 8.0 0.0 0.00 0.00 0.00 90 993.7
20190123222337 18 37 8.0 0.0 0.00 0.00 0.00 90 993.5
20190123221346 18 44 9.0 0.0 0.00 0.00 0.00 90 993.5
20190123220340 18 20 9.0 0.0 0.00 0.00 0.00 90 993.4
20190123215350 18 23 8.0 0.0 0.00 0.00 0.00 90 993.3
20190123214341 19 21 8.0 0.0 0.00 0.00 0.00 90 993.4
20190123213353 18 34 8.0 0.0 0.00 0.00 0.00 90 993.4
20190123212345 18 30 8.0 0.0 0.00 0.00 0.00 90 993.4
20190123211354 19 19 7.0 0.0 0.00 0.00 0.00 90 994.2
20190123210346 19 14 9.0 0.0 0.00 0.00 0.00 90 994.1
20190123205335 19 27 7.0 0.0 0.00 0.00 0.00 90 993.3
20190123204352 19 21 9.0 0.0 0.00 0.00 0.00 90 993.2
20190123203342 19 35 8.0 0.0 0.00 0.00 0.00 90 993.1
20190123202354 19 23 7.0 0.0 0.00 0.00 0.00 90 993.2
20190123201347 19 43 8.0 0.0 0.00 0.00 0.00 90 993.1
20190123200339 19 13 8.0 0.0 0.00 0.00 0.00 90 993.0
20190123195345 19 41 7.0 0.0 0.00 0.00 0.00 90 993.4
20190123194356 19 39 7.0 0.0 0.00 0.00 0.00 90 993.2
20190123193350 19 40 7.0 0.0 0.00 0.00 0.00 90 993.2
20190123192340 19 45 7.0 0.0 0.00 0.00 0.00 90 993.1
20190123191349 19 48 7.0 0.0 0.00 0.00 0.00 90 992.9
20190123190340 19 18 7.0 0.0 0.00 0.00 0.00 90 992.9
20190123185354 19 47 8.0 0.0 0.00 0.00 0.00 90 993.0
20190123184344 19 33 6.0 0.0 0.00 0.00 0.00 90 993.0
20190123183353 19 58 4.0 0.0 0.00 0.00 0.00 90 993.1
20190123182349 19 64 6.0 0.0 0.00 0.00 0.00 90 993.0
20190123181354 19 70 6.0 0.0 0.00 0.00 0.00 90 992.9
20190123180348 19 63 6.0 0.0 0.00 0.00 0.00 90 992.7
20190123175354 19 42 5.0 0.0 0.00 0.00 0.00 90 992.8
20190123174351 20 33 5.0 0.0 0.00 0.00 0.00 90 993.0
20190123173345 19 20 6.0 0.0 0.00 0.00 0.00 90 993.0
20190123172351 19 16 6.0 0.0 0.00 0.00 0.00 90 993.1
20190123171350 19 44 5.0 0.0 0.00 0.00 0.00 90 993.3
20190123170340 19 17 5.0 0.0 0.00 0.00 0.00 90 993.2
20190123165349 19 27 6.0 0.0 0.00 0.00 0.00 90 992.5
20190123164339 19 28 4.0 0.0 0.00 0.00 0.00 90 992.5
20190123163354 19 29 5.0 0.0 0.00 0.00 0.00 90 992.4
20190123161335 19 37 4.0 0.0 0.00 0.00 0.00 90 992.1
20190123160344 19 31 4.0 0.0 0.00 0.00 0.00 90 991.8
20190123155338 19 6 4.0 0.0 0.00 0.00 0.00 90 991.9
20190123154352 19 24 4.0 0.0 0.00 0.00 0.00 90 991.9
20190123153341 20 26 4.0 0.0 0.00 0.00 0.00 90 991.6
20190123152353 19 23 3.0 0.0 0.00 0.00 0.00 90 991.7
20190123151350 20 28 3.0 0.0 0.00 0.00 0.00 90 991.7
20190123150343 20 33 3.0 0.0 0.00 0.00 0.00 90 991.6
20190123145352 20 53 3.0 0.0 0.00 0.00 0.00 90 991.7
20190123144342 20 42 4.0 0.0 0.00 0.00 0.00 90 991.7
20190123143337 20 60 3.0 0.0 0.00 0.00 0.00 90 991.6
20190123142349 20 52 3.0 0.0 0.00 0.00 0.00 90 991.6
20190123141340 20 44 3.0 0.0 0.00 0.00 0.00 90 991.6
20190123140354 20 30 1.0 0.0 0.00 0.00 0.00 90 991.6
20190123135346 20 70 1.0 0.0 0.00 0.00 0.00 90 991.6
20190123134334 20 74 1.0 0.0 0.00 0.00 0.00 90 991.5
20190123133346 19 83 2.0 0.0 0.00 0.00 0.00 90 991.5
20190123132337 19 96 1.0 0.0 0.00 0.00 0.00 90 991.5
20190123131347 19 105 0.0 0.0 0.00 0.00 0.00 90 991.6
20190123130339 19 64 1.0 0.0 0.00 0.00 0.00 90 991.6
20190123125348 19 68 2.0 0.0 0.00 0.00 0.00 90 991.6
20190123124343 19 27 2.0 0.0 0.00 0.00 0.00 90 991.6
20190123123355 19 45 2.0 0.0 0.00 0.00 0.00 90 991.6
20190123122345 18 29 3.0 0.0 0.00 0.00 0.00 90 991.7
20190123121342 18 57 2.0 0.0 0.00 0.00 0.00 90 991.8
20190123120354 18 100 0.0 0.0 0.00 0.00 0.00 90 991.9
20190123115344 18 87 1.0 0.0 0.00 0.00 0.00 90 992.1
20190123114353 18 10 2.0 0.0 0.00 0.00 0.00 90 992.1
20190123113349 18 20 2.0 0.0 0.00 0.00 0.00 90 992.0
20190123112342 18 87 0.0 0.0 0.00 0.00 0.00 89 992.2
20190123111348 18 51 1.0 0.0 0.00 0.00 0.00 89 992.3
20190123110344 17 32 0.0 0.0 0.00 0.00 0.00 89 992.4
20190123105351 17 32 1.0 0.0 0.00 0.00 0.00 89 992.5
20190123104339 17 92 1.0 0.0 0.00 0.00 0.00 89 992.6
20190123103350 17 93 0.0 0.0 0.00 0.00 0.00 89 992.8
20190123102347 17 58 2.0 0.0 0.00 0.00 0.00 89 993.0
20190123101337 17 74 1.0 0.0 0.00 0.00 0.00 89 993.0
20190123100351 17 67 2.0 0.0 0.00 0.00 0.00 89 993.2
20190123094354 17 269 0.0 0.0 0.00 0.00 0.00 89 993.1
20190123093347 16 270 0.0 0.0 0.00 0.00 0.00 89 993.4
20190123092336 16 222 1.0 0.0 0.00 0.00 0.00 89 993.5
20190123091349 15 248 3.0 0.0 0.00 0.00 0.00 88 993.6
20190123090339 15 270 3.0 0.0 0.00 0.00 0.00 88 993.6
20190123085348 15 270 2.0 0.0 0.00 0.00 0.00 88 993.7
20190123084335 14 230 2.0 0.0 0.00 0.00 0.00 88 993.8
20190123083354 14 249 2.0 0.0 0.00 0.00 0.00 88 993.7
20190123082341 13 278 3.0 0.0 0.00 0.00 0.00 88 994.1
20190123081349 13 238 3.0 0.0 0.00 0.00 0.00 88 994.0
20190123080340 12 243 3.0 0.0 0.00 0.00 0.00 88 994.1
20190123075337 12 256 3.0 0.0 0.00 0.00 0.00 87 994.0
20190123074347 12 261 3.0 0.0 0.00 0.00 0.00 87 994.1
20190123073341 12 243 2.0 0.0 0.00 0.00 0.00 87 994.2
20190123072353 11 231 2.0 0.0 0.00 0.00 0.00 87 994.3
20190123071348 11 256 2.0 0.0 0.00 0.00 0.00 87 994.3
20190123070357 11 253 2.0 0.0 0.00 0.00 0.00 86 996.2
20190123065344 10 252 2.0 0.0 0.00 0.00 0.00 86 996.3
20190123064355 10 253 2.0 0.0 0.00 0.00 0.00 86 996.3
20190123063346 9 254 2.0 0.0 0.00 0.00 0.00 86 996.3
20190123062356 9 257 2.0 0.0 0.00 0.00 0.00 86 996.2
20190123061343 9 258 2.0 0.0 0.00 0.00 0.00 86 996.1